THOR ABLESTAR DEB, 643

Orbit data source: Space-Track

THOR ABLESTAR DEB, 643 is space debris in LEO originally from a launch on Thu, 29 Jun 1961 UTC launched from the Air Force Eastern Test Range (AFETR). Debris objects in space refer to the collection of defunct objects orbiting the Earth. Examples of debris include non-operational satellites, rocket bodies, and fragments generated from explosions, collisions, or faulty payload assembly.

Loading next visibility...
Identifier
643, 1961-015GU
Orbit
LEO
Country
Flag of USUS
Related business
Manufacturer
Unknown
Mission
Spacecraft
Bus & Motor
Unknown
Mass
Unknown
Launch date (UTC)
1961-06-29 (64 years ago)
Launch vehicle
Unknown
Launch site
Air Force Eastern Test Range (AFETR)
Object type
Payload
Rocket body
Debris
Shape & HBR
Unknown
Radar Cross Section
Small (<0.1 m²)

Expand to show TLE details & history
Last TLE update: 9 hours ago

TLE from 9 hours ago
0 THOR ABLESTAR DEB
1 00643U 61015GU  25261.13429134  .00001761  00000-0  25878-2 0  9996
2 00643  66.3714 314.4221 0335718 192.2919 166.9790 13.36058157 73646
Epoch: 2025-09-18T03:13Z
TLE epoch observation values (Epoch: 2025-09-18T03:13:22.771Z)
Latitude
-0.00004°
Longitude
-91.22304°
Altitude
1,371.807 km
Speed
7.055 km/s
True Right ascension
20h 57m 41s
True Declination
0° 00' 00"
Sunlit
Object was in full shadow at epoch
Visualization orbit readout
Latitude
Unknown
Longitude
Unknown
Altitude
Unknown
Speed
Unknown
Apparent Right ascension
Unknown
Apparent Declination
Unknown
Sunlit
N/A
Visualization observer readout
Local Sidereal Time
05:14:22
Azimuth
Unknown
Elevation
Unknown
Doppler factor
Unknown
Orbital elements
Apogee altitude
1,374.29 km
Perigee altitude
870.671 km
Semi-major axis
7,500.618 km
Eccentricity
0.03357
Inclination
66.3714°
RAAN
314.4221°
Arg. of periapsis
192.2919°
True anomaly
167.81164°
Mean anomaly
166.979°
Eccentric anomaly
167.39865°
Mean motion
3.34116 °/min
Orbital period
107.75 mins
BSTAR
0.0025878
Loading maneuver chart data...
Computing Atmospheric mass density...

Documentation

Showing up to 5 results
|